This is the latest recevied weather packets stored in our database for station/object OE5MMP-13. If no packets are shown the sender has not sent any weather packets the latest 10 day(s).
| Time | Temp. | Humidity | Pressure | Rain* | Wind** | Luminosity | Snow |
|---|---|---|---|---|---|---|---|
| 1788591192 | 13.33° C | 88% | 1021.5 hPa | 3.05 mm | - | 14 W/m² | - |
| 1788590593 | 13.33° C | 87% | 1021.4 hPa | 3.3 mm | - | 26 W/m² | - |
| 1788589992 | 13.33° C | 86% | 1021.8 hPa | 3.56 mm | - | 7 W/m² | - |
| 1788589392 | 13.33° C | 86% | 1021.6 hPa | 3.56 mm | - | 16 W/m² | - |
| 1788588792 | 13.89° C | 84% | 1021.7 hPa | 3.05 mm | - | 12 W/m² | - |
| 1788588192 | 14.44° C | 82% | 1021.8 hPa | 2.29 mm | - | 9 W/m² | - |
| 1788587592 | 15° C | 79% | 1022.1 hPa | 1.52 mm | - | 7 W/m² | - |
| 1788586992 | 16.11° C | 74% | 1021.8 hPa | 0.76 mm | - | 6 W/m² | - |
| 1788586392 | 16.67° C | 69% | 1021.4 hPa | 0 mm | - | 3 W/m² | - |
| 1788585792 | 17.22° C | 67% | 1021.1 hPa | 0 mm | - | 11 W/m² | - |
| 1788585192 | 17.22° C | 65% | 1020.7 hPa | 0.25 mm | - | 16 W/m² | - |
| 1788584592 | 17.78° C | 65% | 1020.8 hPa | 0.25 mm | - | 5 W/m² | - |
| 1788583991 | 18.33° C | 65% | 1020.6 hPa | 0.25 mm | - | 5 W/m² | - |
| 1788583391 | 18.33° C | 65% | 1020.4 hPa | 0.25 mm | - | 0 W/m² | - |
| 1788582791 | 18.33° C | 66% | 1020.5 hPa | 0.25 mm | - | 0 W/m² | - |
| 1788582192 | 18.89° C | 66% | 1020.1 hPa | 0.25 mm | - | 0 W/m² | - |
| 1788581592 | 19.44° C | 61% | 1019.5 hPa | 0 mm | - | 0 W/m² | - |
| 1788580992 | 19.44° C | 60% | 1019.4 hPa | 0 mm | - | 0 W/m² | - |
| 1788580392 | 20° C | 61% | 1018.9 hPa | 0 mm | - | 0 W/m² | - |
| 1788579791 | 20.56° C | 61% | 1018.7 hPa | 0 mm | - | 0 W/m² | - |
| 1788579191 | 21.67° C | 60% | 1018.4 hPa | 0 mm | - | 0 W/m² | - |
| 1788578591 | 22.78° C | 60% | 1018.3 hPa | 0 mm | - | 0 W/m² | - |
| 1788578014 | 22.78° C | 59% | 1018 hPa | 0 mm | - | 0 W/m² | - |
| 1788577391 | 22.78° C | 59% | 1018 hPa | 0 mm | - | 0 W/m² | - |
| 1788576791 | 22.78° C | 59% | 1017.9 hPa | 0 mm | - | 0 W/m² | - |
* Rain latest hour (hover to see other rain measurements)
** Current wind speed in m/s (hover to see current wind gust speed)